AirNav   Everest Fuels
 
 814 users online  

96MO Riverlands Area Heliport
West Alton, Missouri, USA

GOING TO WEST ALTON?


FAA INFORMATION EFFECTIVE 31 DECEMBER 2020

Location

FAA Identifier: 96MO
Lat/Long: 38-51-47.1740N 090-09-25.3910W
38-51.786233N 090-09.423183W
38.8631039,-90.1570531
(estimated)
Elevation: 434 ft. / 132 m (estimated)
Variation: 02E (1985)
From city: 4 miles E of WEST ALTON, MO
Time zone: UTC -6 (UTC -5 during Daylight Saving Time)
Zip code: 63386

Heliport Operations

Heliport use: Private use. Permission required prior to landing
Activation date: 03/1984
Control tower: no
ARTCC: KANSAS CITY CENTER
FSS: SAINT LOUIS FLIGHT SERVICE STATION
Attendance: UNATNDD
Segmented circle: no

Heliport Communications

WX AWOS-3 at ALN (5 nm E): 128.0 (618-259-7231)
WX ASOS at STL (12 nm SW): 125.025 (314-890-4790)
WX ASOS at SET (13 nm W): 118.075 (636-250-4590)
WX ASOS at CPS (18 nm S): PHONE 618-332-0001

Nearby radio navigation aids

VOR radial/distance  VOR name  Freq  Var
TOYr300/13.4TROY VORTAC116.0004E
STLr088/15.2ST LOUIS VORTAC117.4001E
FTZr070/39.4FORISTELL VORTAC110.8005E

 
NDB name  Hdg/Dist  Freq  Var  ID
CIVIC MEMORIAL251/5.026301WCVM -.-. ...- --

Heliport Services

Runway Information

Helipad H1

Dimensions: 100 x 100 ft. / 30 x 30 m
Surface: turf
Latitude: 38-51.786167N
Longitude: 090-09.423167W
Elevation: 434.0 ft.
Traffic pattern: leftleft

Heliport Ownership and Management from official FAA records

Ownership: Publicly-owned
Owner: CORPS OF ENGINEERS
P O BOX 337
WEST ALTON, MO 63386-0337
Phone 573-355-6505
Manager: PATRICK MC GINNIS
PO BOX 337
WEST ALTON, MO 63386
Phone 314-899-0405

Additional Remarks

A52 145' TWR LGTD 150' SW OF PAD.
FOR CD CTC ST LOUIS APCH AT 314-890-1018.

Instrument Procedures

There are no published instrument procedures at 96MO.

Some nearby airports with instrument procedures:

KALN - St Louis Regional Airport (5 nm E)
KSTL - St Louis Lambert International Airport (12 nm SW)
KSET - St Charles County Smartt Airport (13 nm W)
KCPS - St Louis Downtown Airport (18 nm S)
1H0 - Creve Coeur Airport (18 nm SW)
 
Loc | Ops | Rwys | IFR | FBO | Links
Com | Nav | Svcs | Stats | Notes
Area around 96MO (Riverlands Area Heliport)
 
Road maps at: MapQuest Bing Google
 
Aerial photo
No photo
 
Sectional chart

 
Airport distance calculator
Flying to Riverlands Area Heliport? Find the distance to fly.

From to 96MO

Sunrise and sunset
Times for 21-Jan-2021
 Local
(UTC-6)
 Zulu
(UTC)
Morning civil twilight06:4712:47
Sunrise07:1613:16
Sunset17:0823:08
Evening civil twilight17:3723:37

Current date and time
Zulu (UTC)  22-Jan-2021 04:03:45
Local (UTC-6)  21-Jan-2021 22:03:45
 
METAR
KALN 
6nm E 
220350Z 28006KT 10SM CLR 01/M03 A2996
KSTL 
12nm SW 
220351Z 29006KT 10SM CLR 04/M04 A2996 RMK AO2 SLP152 T00441044
KSET 
14nm W 
220354Z AUTO 32005KT 10SM CLR M01/M03 A2997 RMK AO2 SLP150 T10061033
KCPS 
18nm S 
220353Z AUTO 25004KT 10SM CLR 01/M03 A2996 RMK AO2 SLP147 T00061033
TAF
KSTL 
12nm SW 
212114Z 2121/2224 26009KT P6SM BKN250 FM220400 32009KT P6SM SCT250
KCPS 
18nm S 
211723Z 2118/2218 26008KT P6SM SCT250 FM220400 32009KT P6SM SCT250
NOTAMs
Click for the latest NOTAMs
NOTAMs are issued by the DoD/FAA and will open in a separate window not controlled by AirNav.

 

 
 

Would you like to see your business listed on this page?

 If your business provides an interesting product or service to pilots, flight crews, aircraft, or users of the Riverlands Area Heliport, you should consider listing it here.  To start the listing process, click on the button below
 
Add a business
 

Other Pages about Riverlands Area Heliport

Update a link
 
Copyright © AirNav, LLC. All rights reserved. Privacy Policy  Contact